Regional Weather Roundup
Issued by NWS

Home | Current Version | Previous Version | Text Only | Print | Product List | Glossary On
Versions: 1 2 3 4 5 6 7 8 9 10 11 12 13 14 15 16 17 18 19 20 21 22 23 24 25 26 27 28 29 30 31 32 33 34 35 36 37 38 39 40 41 42 43 44 45 46 47 48 49 50
000
ASUS43 KDTX 290810
RWRMI
MICHIGAN HOURLY REGIONAL WEATHER ROUNDUP
NATIONAL WEATHER SERVICE DETROIT/PONTIAC MI
400 AM EDT WED MAR 29 2017

NOTE: "FAIR" INDICATES FEW OR NO CLOUDS BELOW 12,000 FEET WITH NO
SIGNIFICANT WEATHER AND/OR OBSTRUCTION TO VISIBILITY.

MIZ047>049-052>055-059>063-066>070-074>076-081>083-290900-
SOUTHEAST LOWER MICHIGAN

CITY           SKY/WX    TMP DP  RH WIND       PRES   REMARKS
ADRIAN         CLEAR     34  31  88 NE6       30.23S WCI  29
ALMA           FOG       28  28 100 CALM      30.26S VSB 1/2
ANN ARBOR      CLEAR     33  31  92 N3        30.22F
BAD AXE        CLEAR     26  25  96 CALM      30.25S
CARO           CLEAR     27  27 100 CALM      30.23F FOG
DETROIT CITY   CLEAR     34  31  88 NE6       30.23F WCI  29
DETROIT        CLEAR     36  30  79 NE6       30.23F WCI  31
FLINT          CLEAR     29  27  92 CALM      30.24
GROSSE ILE     CLEAR     36  32  85 NE6       30.22F WCI  31
HILLSDALE      CLEAR     32  30  93 NE5       30.21R WCI  27
HOWELL         CLEAR     32  31  94 CALM      30.22F

CITY           SKY/WX    TMP DP  RH WIND       PRES   REMARKS
JACKSON        LGT RAIN  35  31  85 CALM      30.22F
LAMBERTVILLE   CLEAR     36  33  89 CALM      30.22S
LANSING        CLEAR     33  30  88 CALM      30.24F
LAPEER         FAIR      29  29 100 CALM      30.23F
MASON          CLEAR     33  33  99 CALM      30.23S
MONROE         CLEAR     34  32  92 N3        30.21F
MT. CLEMENS    CLEAR     32  31  94 CALM      30.22F
PONTIAC        CLEAR     30  27  88 NE5       30.21F WCI  25
PORT HOPE        N/A     33  30  88 W5        30.23S WCI  29
PORT HURON     CLEAR     30  27  86 CALM      30.23F
TRI CITIES     CLEAR     32  30  92 N7        30.25F WCI  26
MIDLAND        FAIR      28  27  97 CALM      30.24F
TROY           CLEAR     35  30  81 CALM      30.25F
SAGINAW HB     CLEAR     32  28  86 CALM      30.24F FOG
$$
MIZ043>046-050>051-056>058-064>065-071>073-077>080-290900-
SOUTHWEST LOWER MICHIGAN

CITY           SKY/WX    TMP DP  RH WIND       PRES   REMARKS
BATTLE CREEK   CLEAR     34  33  96 NE5       30.23S WCI  30
BENTON HARBOR  CLEAR     30  27  88 CALM      30.23F
BIG RAPIDS     CLEAR     31  29  94 CALM      30.25R
COLDWATER      FOG       33  33 100 CALM      30.22S VSB 1/2
FREMONT        FAIR      36  35  94 E3        30.24S
HOLLAND        CLEAR     31  28  89 CALM      30.24F
GRAND RAPIDS   CLEAR     34  34 100 E5        30.24R WCI  30
IONIA          FAIR      33  32  97 NE5       30.24R WCI  29
KALAMAZOO      CLEAR     32  30  92 CALM      30.23S FOG
LUDINGTON      CLEAR     29  29 100 CALM      30.24R
MARSHALL       CLEAR     34  33  97 CALM      30.22S
MOUNT PLEASANT CLEAR     31  30  96 CALM      30.24F
MUSKEGON       CLEAR     31  29  92 E3        30.24S
SOUTH HAVEN    CLEAR     30  29  98 CALM      30.24S FOG
$$
MIZ016>042-290900-
NORTHERN LOWER MICHIGAN

CITY           SKY/WX    TMP DP  RH WIND       PRES   REMARKS
ALPENA         CLEAR     31  29  92 N3        30.26R
BEAVER ISLAND  CLEAR     31  31  98 CALM      30.28F
BELLAIRE       CLEAR     27  26  96 CALM      30.28F
CADILLAC       CLEAR     27  26  95 CALM      30.23S
CHARLEVOIX     CLEAR     28  28 100 CALM      30.30F
FRANKFORT      CLEAR     30  28  92 CALM      30.27R
GAYLORD        CLEAR     32  25  75 CALM      30.24F
GRAYLING       CLEAR     23  21  93 CALM      30.25F
HARBOR SPRINGS CLEAR     29  29 100 CALM      30.27F
HOUGHTON LAKE  CLEAR     29  26  89 CALM      30.24F
MANISTEE       CLEAR     28  27  96 CALM      30.26R
OSCODA         CLEAR     28  26  89 W5        30.23F WCI  23
PELLSTON       CLEAR     28  25  88 NW3       30.28S
ROGERS CITY    CLEAR     33  29  86 W3        30.28R
TRAVERSE CITY  FOG       32  30  92 CALM      30.27F VSB 1/4
$$
MIZ007>008-015-290900-
EASTERN UPPER MICHIGAN

CITY           SKY/WX    TMP DP  RH WIND       PRES   REMARKS
KINROSS        FOG       29  28  96 N7        30.29R VSB 1/2 WCI  22
MACKINAC ISLAN CLOUDY    29  29 100 N8        30.27S FOG     WCI  22
NEWBERRY       CLOUDY    29  28  96 N7        30.29S WCI  22
S. S. MARIE    CLEAR     30  27  88 W3        30.29R
MUNISING         N/A     28  26  92 CALM      30.32F
$$
MIZ004>006-011>014-085-290900-
CENTRAL UPPER MICHIGAN

CITY           SKY/WX    TMP DP  RH WIND       PRES   REMARKS
MANISTIQUE     PTCLDY    29  29  97 N9        30.30S WCI  21
ESCANABA       CLEAR     28  28 100 CALM      30.30S
MENOMINEE        N/A    N/A N/A N/A MISG        N/A
SAWYER-GWINN   CLEAR     31  29  92 N12       30.29S WCI  22
$$
MIZ001>003-009>011-084-290900-
WESTERN UPPER MICHIGAN

CITY           SKY/WX    TMP DP  RH WIND       PRES   REMARKS
IRON MOUNTAIN  CLEAR     29  22  75 CALM      30.27S
HOUGHTON       CLEAR     32  25  75 E10       30.32S WCI  24
COPPER HARBOR    N/A     32  27  81 S3        30.35S
IRONWOOD       CLEAR     34  27  75 E12       30.26S WCI  25
$$

ABBREVIATIONS USED IN REMARKS
   TC - TEMPERATURE IN CELSIUS
  WCI - WIND CHILL INDEX
   HX - HEAT INDEX
  VSB - VISIBILITY





USA.gov is the U.S. government's official web portal to all federal, state and local government web resources and services.